TimeAST,TemperatureF,Dew PointF,Humidity,Sea Level PressureIn,VisibilityMPH,Wind Direction,Wind SpeedMPH,Gust SpeedMPH,PrecipitationIn,Events,Conditions,WindDirDegrees,DateUTC
12:53 AM,78.1,73.0,84,30.05,10.0,East,9.2,-,N/A,,Mostly Cloudy,90,2013-05-20 04:53:00
1:06 AM,78.8,73.4,83,30.04,10.0,East,10.4,-,N/A,,Scattered Clouds,80,2013-05-20 05:06:00
1:53 AM,78.1,73.0,84,30.03,10.0,East,6.9,17.3,N/A,,Mostly Cloudy,100,2013-05-20 05:53:00
2:53 AM,78.1,73.0,84,30.01,10.0,East,8.1,-,N/A,,Mostly Cloudy,100,2013-05-20 06:53:00
3:04 AM,78.8,71.6,78,30.01,10.0,ESE,10.4,-,N/A,,Scattered Clouds,110,2013-05-20 07:04:00
3:53 AM,77.0,72.0,84,30.00,10.0,East,9.2,-,N/A,,Scattered Clouds,90,2013-05-20 07:53:00
4:53 AM,78.1,71.1,79,30.01,10.0,East,10.4,-,N/A,,Scattered Clouds,100,2013-05-20 08:53:00
5:53 AM,78.1,72.0,81,30.03,10.0,East,10.4,-,N/A,,Mostly Cloudy,80,2013-05-20 09:53:00
6:08 AM,78.8,71.6,78,30.02,10.0,East,8.1,-,N/A,,Mostly Cloudy,80,2013-05-20 10:08:00
6:53 AM,79.0,73.0,82,30.04,10.0,East,11.5,-,N/A,,Mostly Cloudy,80,2013-05-20 10:53:00
7:40 AM,78.8,71.6,78,30.05,10.0,East,11.5,19.6,N/A,,Scattered Clouds,90,2013-05-20 11:40:00
7:53 AM,79.0,71.1,77,30.05,10.0,ESE,9.2,19.6,N/A,,Scattered Clouds,110,2013-05-20 11:53:00
8:53 AM,81.0,72.0,74,30.07,10.0,East,11.5,-,N/A,,Clear,100,2013-05-20 12:53:00
9:53 AM,82.0,72.0,71,30.08,10.0,East,9.2,-,N/A,,Clear,80,2013-05-20 13:53:00
10:53 AM,80.1,72.0,76,30.07,10.0,ENE,9.2,-,N/A,,Mostly Cloudy,60,2013-05-20 14:53:00
11:12 AM,82.4,73.4,74,30.07,10.0,East,10.4,-,N/A,,Mostly Cloudy,90,2013-05-20 15:12:00
11:24 AM,80.6,73.4,79,30.07,10.0,East,11.5,-,N/A,,Mostly Cloudy,80,2013-05-20 15:24:00
11:53 AM,80.1,73.9,81,30.06,10.0,East,11.5,17.3,0.00,,Overcast,80,2013-05-20 15:53:00
12:11 PM,80.6,73.4,79,30.06,10.0,ENE,8.1,20.7,N/A,,Mostly Cloudy,60,2013-05-20 16:11:00
12:49 PM,78.8,73.4,83,30.05,10.0,East,9.2,-,0.00,Rain,Light Rain,80,2013-05-20 16:49:00
12:53 PM,79.0,73.9,84,30.05,10.0,East,10.4,-,0.01,Rain,Light Rain,80,2013-05-20 16:53:00
1:53 PM,79.0,73.0,82,30.04,9.0,ENE,9.2,18.4,0.00,Rain,Light Rain,70,2013-05-20 17:53:00
2:00 PM,78.8,73.4,83,30.04,8.0,East,10.4,-,0.00,Rain,Light Rain,80,2013-05-20 18:00:00
2:26 PM,80.6,75.2,84,30.03,10.0,ENE,11.5,-,0.01,,Mostly Cloudy,70,2013-05-20 18:26:00
2:53 PM,79.0,75.0,88,30.02,10.0,ENE,11.5,18.4,0.03,,Mostly Cloudy,70,2013-05-20 18:53:00
3:22 PM,78.8,75.2,89,30.02,10.0,ENE,10.4,-,0.01,,Mostly Cloudy,70,2013-05-20 19:22:00
3:46 PM,78.8,73.4,83,30.01,10.0,East,11.5,-,0.01,,Mostly Cloudy,80,2013-05-20 19:46:00
3:53 PM,79.0,75.0,88,30.01,10.0,ENE,9.2,17.3,0.01,,Mostly Cloudy,70,2013-05-20 19:53:00
4:01 PM,78.8,75.2,89,30.01,9.0,ENE,10.4,-,N/A,,Mostly Cloudy,70,2013-05-20 20:01:00
4:53 PM,77.0,73.9,90,30.01,4.0,ESE,10.4,-,0.03,Rain,Rain,110,2013-05-20 20:53:00
5:53 PM,78.1,73.0,84,30.00,10.0,ENE,10.4,18.4,0.05,,Overcast,60,2013-05-20 21:53:00
6:08 PM,78.8,73.4,83,30.01,10.0,ENE,10.4,17.3,N/A,,Overcast,70,2013-05-20 22:08:00
6:17 PM,78.8,73.4,83,30.02,10.0,ENE,11.5,18.4,N/A,,Overcast,60,2013-05-20 22:17:00
6:35 PM,78.8,73.4,83,30.02,10.0,ENE,10.4,-,N/A,,Overcast,70,2013-05-20 22:35:00
6:53 PM,78.1,73.0,84,30.02,10.0,ENE,12.7,19.6,N/A,,Mostly Cloudy,70,2013-05-20 22:53:00
7:53 PM,78.1,73.0,84,30.03,10.0,ENE,11.5,-,N/A,,Scattered Clouds,70,2013-05-20 23:53:00
8:53 PM,78.1,72.0,81,30.05,10.0,ENE,9.2,18.4,N/A,,Partly Cloudy,70,2013-05-21 00:53:00
9:53 PM,77.0,71.1,82,30.06,10.0,East,9.2,19.6,N/A,,Partly Cloudy,90,2013-05-21 01:53:00
10:53 PM,78.1,72.0,81,30.06,10.0,ENE,10.4,17.3,N/A,,Scattered Clouds,70,2013-05-21 02:53:00
11:53 PM,78.1,72.0,81,30.04,10.0,East,8.1,-,N/A,,Mostly Cloudy,80,2013-05-21 03:53:00